• In Czech Republic
  • List of Countries
  • For 7 days
  • Water Temperature
  • Satellite Maps
  • Weather Map
  • Weather Widgets
  • user-avatar
    Login

    Hourly Weather Ballycastle

    Today, 21 September, Friday

    Time Temperature Precipitation Wind Pressure Humidity
    00:00 +7°C° 0.7 mm 6 mps 744 mmHg 92%
    01:00 +5°C° 0.3 mm 6 mps 744 mmHg 91%
    02:00 +5°C° 0.3 mm 6 mps 744 mmHg 91%
    03:00 +5°C° 0.3 mm 7 mps 744 mmHg 90%
    04:00 +5°C° 0.2 mm 7 mps 744 mmHg 91%
    05:00 +5°C° 0.2 mm 7 mps 744 mmHg 91%
    06:00 +5°C° 0 mm 7 mps 743 mmHg 92%
    07:00 +5°C° 0.3 mm 7 mps 744 mmHg 92%
    08:00 +6°C° 0.3 mm 7 mps 744 mmHg 91%
    09:00 +8°C° 0.3 mm 7 mps 745 mmHg 91%
    10:00 +9°C° 0.2 mm 8 mps 746 mmHg 88%
    11:00 +8°C° 0.2 mm 9 mps 747 mmHg 85%
    12:00 +9°C° 0.2 mm 10 mps 748 mmHg 82%
    13:00 +9°C° 0.1 mm 10 mps 749 mmHg 79%
    14:00 +11°C° 0.1 mm 9 mps 750 mmHg 75%
    15:00 +11°C° 0.1 mm 9 mps 751 mmHg 72%
    16:00 +10°C° 0.1 mm 8 mps 752 mmHg 75%
    17:00 +10°C° 0.1 mm 8 mps 753 mmHg 78%
    18:00 +9°C° 0.1 mm 8 mps 753 mmHg 82%
    19:00 +7°C° 0.1 mm 8 mps 754 mmHg 82%
    20:00 +6°C° 0.1 mm 8 mps 754 mmHg 82%
    21:00 +6°C° 0.1 mm 8 mps 755 mmHg 82%
    22:00 +6°C° 0 mm 8 mps 755 mmHg 82%
    23:00 +5°C° 0 mm 8 mps 755 mmHg 82%

    Tomorrow, 22 September, Saturday

    Time Temperature Precipitation Wind Pressure Humidity
    00:00 +5°C° 0 mm 8 mps 756 mmHg 82%
    01:00 +5°C° 0.1 mm 8 mps 756 mmHg 81%
    02:00 +5°C° 0.1 mm 8 mps 756 mmHg 80%
    03:00 +5°C° 0.1 mm 8 mps 757 mmHg 80%
    04:00 +5°C° 0.1 mm 8 mps 757 mmHg 81%
    05:00 +5°C° 0.1 mm 8 mps 757 mmHg 82%
    06:00 +5°C° 0.1 mm 7 mps 757 mmHg 83%
    07:00 +6°C° 0 mm 7 mps 758 mmHg 79%
    08:00 +8°C° 0 mm 7 mps 758 mmHg 76%
    09:00 +9°C° 0 mm 7 mps 758 mmHg 72%
    10:00 +10°C° 0 mm 6 mps 759 mmHg 70%
    11:00 +10°C° 0 mm 6 mps 759 mmHg 67%
    12:00 +11°C° 0 mm 6 mps 759 mmHg 64%
    13:00 +12°C° 0 mm 5 mps 759 mmHg 64%
    14:00 +12°C° 0 mm 5 mps 759 mmHg 63%
    15:00 +12°C° 0 mm 5 mps 759 mmHg 63%
    16:00 +11°C° 0 mm 4 mps 759 mmHg 67%
    17:00 +10°C° 0 mm 4 mps 759 mmHg 71%
    18:00 +9°C° 0 mm 3 mps 759 mmHg 75%
    19:00 +8°C° 0 mm 3 mps 760 mmHg 78%
    20:00 +8°C° 0 mm 2 mps 760 mmHg 80%
    21:00 +7°C° 0 mm 2 mps 760 mmHg 82%
    22:00 +7°C° 0 mm 2 mps 760 mmHg 84%
    23:00 +8°C° 0 mm 1 mps 760 mmHg 85%

    Day after tomorrow, 23 September, Sunday

    Time Temperature Precipitation Wind Pressure Humidity
    00:00 +7°C° 0 mm 1 mps 760 mmHg 86%
    01:00 +8°C° 0 mm 1 mps 760 mmHg 87%
    02:00 +8°C° 0 mm 1 mps 760 mmHg 87%
    03:00 +8°C° 0 mm 1 mps 760 mmHg 88%
    04:00 +8°C° 0 mm 1 mps 760 mmHg 88%
    05:00 +8°C° 0 mm 1 mps 760 mmHg 88%
    06:00 +8°C° 0 mm 1 mps 760 mmHg 88%
    07:00 +9°C° 0.1 mm 1 mps 761 mmHg 86%
    08:00 +10°C° 0.1 mm 1 mps 761 mmHg 84%
    09:00 +10°C° 0.1 mm 1 mps 762 mmHg 81%
    10:00 +10°C° 0.1 mm 2 mps 762 mmHg 78%
    11:00 +11°C° 0.1 mm 3 mps 762 mmHg 74%
    12:00 +12°C° 0.1 mm 3 mps 763 mmHg 71%
    13:00 +12°C° 0.1 mm 4 mps 763 mmHg 70%
    14:00 +12°C° 0.1 mm 5 mps 764 mmHg 70%
    15:00 +11°C° 0.1 mm 6 mps 764 mmHg 70%
    16:00 +10°C° 0 mm 6 mps 765 mmHg 72%
    17:00 +9°C° 0 mm 7 mps 766 mmHg 73%
    18:00 +8°C° 0 mm 7 mps 767 mmHg 75%
    19:00 +6°C° 0 mm 7 mps 767 mmHg 75%
    20:00 +7°C° 0 mm 6 mps 768 mmHg 75%
    21:00 +5°C° 0 mm 6 mps 769 mmHg 75%
    22:00 +5°C° 0 mm 6 mps 770 mmHg 76%
    23:00 +6°C° 0 mm 5 mps 770 mmHg 78%

    24 September, Monday

    Time Temperature Precipitation Wind Pressure Humidity
    00:00 +5°C° 0 mm 5 mps 771 mmHg 80%
    01:00 +5°C° 0 mm 5 mps 771 mmHg 82%
    02:00 +5°C° 0 mm 5 mps 772 mmHg 84%
    03:00 +5°C° 0 mm 5 mps 772 mmHg 86%
    04:00 +5°C° 0 mm 5 mps 772 mmHg 87%
    05:00 +5°C° 0 mm 5 mps 773 mmHg 87%
    06:00 +5°C° 0 mm 5 mps 773 mmHg 88%
    07:00 +6°C° 0 mm 4 mps 774 mmHg 83%
    08:00 +8°C° 0 mm 4 mps 774 mmHg 79%
    09:00 +10°C° 0 mm 4 mps 775 mmHg 74%
    10:00 +11°C° 0 mm 4 mps 775 mmHg 70%
    11:00 +12°C° 0 mm 4 mps 775 mmHg 66%
    12:00 +12°C° 0 mm 4 mps 775 mmHg 63%
    13:00 +13°C° 0 mm 4 mps 775 mmHg 62%
    14:00 +13°C° 0 mm 4 mps 775 mmHg 62%
    15:00 +13°C° 0 mm 4 mps 775 mmHg 61%
    16:00 +12°C° 0 mm 4 mps 775 mmHg 66%
    17:00 +11°C° 0 mm 3 mps 775 mmHg 71%
    18:00 +9°C° 0 mm 3 mps 775 mmHg 76%
    19:00 +9°C° 0 mm 2 mps 775 mmHg 79%
    20:00 +8°C° 0 mm 2 mps 776 mmHg 81%
    21:00 +7°C° 0 mm 2 mps 776 mmHg 84%
    22:00 +7°C° 0 mm 2 mps 776 mmHg 85%
    23:00 +7°C° 0 mm 3 mps 775 mmHg 86%

    25 September, Tuesday

    Time Temperature Precipitation Wind Pressure Humidity
    00:00 +5°C° 0 mm 3 mps 775 mmHg 87%
    01:00 +5°C° 0 mm 4 mps 775 mmHg 87%
    02:00 +5°C° 0 mm 4 mps 774 mmHg 88%
    03:00 +5°C° 0 mm 4 mps 774 mmHg 89%
    04:00 +5°C° 0 mm 5 mps 774 mmHg 89%
    05:00 +5°C° 0 mm 5 mps 773 mmHg 89%
    06:00 +3°C° 0 mm 5 mps 773 mmHg 90%
    07:00 +5°C° 0 mm 6 mps 772 mmHg 84%
    08:00 +7°C° 0 mm 6 mps 772 mmHg 79%
    09:00 +8°C° 0 mm 7 mps 772 mmHg 73%
    10:00 +9°C° 0 mm 7 mps 771 mmHg 72%
    11:00 +11°C° 0 mm 8 mps 771 mmHg 71%
    12:00 +12°C° 0 mm 8 mps 770 mmHg 69%
    13:00 +12°C° 0 mm 8 mps 769 mmHg 69%
    14:00 +14°C° 0 mm 7 mps 769 mmHg 69%
    15:00 +14°C° 0 mm 7 mps 768 mmHg 69%
    16:00 +12°C° 0 mm 7 mps 767 mmHg 73%
    17:00 +12°C° 0 mm 7 mps 767 mmHg 77%
    18:00 +11°C° 0 mm 6 mps 766 mmHg 81%
    19:00 +11°C° 0 mm 7 mps 766 mmHg 82%
    20:00 +10°C° 0 mm 7 mps 766 mmHg 83%
    21:00 +10°C° 0 mm 8 mps 766 mmHg 84%
    22:00 +10°C° 0 mm 8 mps 766 mmHg 83%
    23:00 +10°C° 0 mm 9 mps 765 mmHg 83%

    26 September, Wednesday

    Time Temperature Precipitation Wind Pressure Humidity
    00:00 +10°C° 0 mm 9 mps 765 mmHg 83%
    01:00 +10°C° 0 mm 9 mps 764 mmHg 84%
    02:00 +10°C° 0 mm 9 mps 764 mmHg 85%
    03:00 +10°C° 0 mm 9 mps 763 mmHg 86%
    04:00 +10°C° 0.3 mm 9 mps 763 mmHg 86%
    05:00 +10°C° 0.3 mm 9 mps 763 mmHg 87%
    06:00 +10°C° 0.3 mm 9 mps 763 mmHg 87%
    07:00 +11°C° 0.5 mm 8 mps 762 mmHg 88%
    08:00 +11°C° 0.5 mm 8 mps 762 mmHg 89%
    09:00 +11°C° 0.5 mm 8 mps 762 mmHg 90%
    10:00 +12°C° 0.2 mm 7 mps 762 mmHg 90%
    11:00 +12°C° 0.2 mm 7 mps 762 mmHg 90%
    12:00 +14°C° 0.2 mm 7 mps 762 mmHg 89%
    13:00 +15°C° 0 mm 7 mps 761 mmHg 89%
    14:00 +15°C° 0 mm 7 mps 761 mmHg 88%
    15:00 +16°C° 0 mm 7 mps 761 mmHg 88%
    16:00 +15°C° 0 mm 7 mps 761 mmHg 88%
    17:00 +15°C° 0 mm 7 mps 760 mmHg 89%
    18:00 +15°C° 0 mm 6 mps 760 mmHg 90%
    19:00 +15°C° 0 mm 7 mps 760 mmHg 90%
    20:00 +15°C° 0 mm 7 mps 760 mmHg 91%
    21:00 +15°C° 0 mm 7 mps 760 mmHg 91%
    22:00 +15°C° 0.1 mm 7 mps 760 mmHg 92%
    23:00 +15°C° 0.1 mm 7 mps 759 mmHg 92%
    Show more